Regional Weather Roundup
Issued by NWS

Home | Current Version | Previous Version | Text Only | Print | Product List | Glossary On
Versions: 1 2 3 4 5 6 7 8 9 10 11 12 13 14 15 16 17 18 19 20 21 22 23 24 25 26 27 28 29 30 31 32 33 34 35 36 37 38 39 40 41 42 43 44 45 46 47
000
ASUS44 KBMX 191710
RWRAL

ALABAMA REGIONAL WEATHER ROUNDUP
NATIONAL WEATHER SERVICE BIRMINGHAM AL
1200 PM CDT FRI SEP 19 2014

NOTE: "FAIR" INDICATES FEW OR NO CLOUDS BELOW 12,000 FEET
WITH NO SIGNIFICANT WEATHER AND/OR OBSTRUCTIONS TO VISIBILITY.

THE REMARK "TC" DENOTES TEMPERATURE IN DEGREES CELSIUS.

ALZ001>011-014-016>018-020-191800-
NORTH ALABAMA

CITY           SKY/WX    TMP DP  RH WIND       PRES   REMARKS
MUSCLE SHOALS  SUNNY     82  64  54 CALM      30.05F
HUNTSVILLE     MOSUNNY   83  63  50 VRB5      30.06S
DECATUR        SUNNY     84  62  47 VRB3      30.06S
HALEYVILLE     FAIR      82  63  52 CALM      30.08F
GADSDEN        SUNNY     82  64  54 E9        30.06F
$$

ALZ012-013-022-023-030>036-040>044-191800-
WEST CENTRAL ALABAMA

CITY           SKY/WX    TMP DP  RH WIND       PRES   REMARKS
TUSCALOOSA     SUNNY     86  63  45 VRB6      30.02F
$$

ALZ015-024>027-033>036-040>044-191800-
CENTRAL ALABAMA

CITY           SKY/WX    TMP DP  RH WIND       PRES   REMARKS
BIRMINGHAM     PTSUNNY   84  64  50 VRB5      30.06F
MONTGOMERY     SUNNY     88  66  48 E10       30.02S HX  90
SHELBY CO ARPT SUNNY     84  67  56 VRB3      30.04F
MAXWELL AFB    SUNNY     88  65  47 E7        30.01F HX  90
GREENVILLE     NOT AVBL
$$

ALZ019-021-028-029-037-038-045>048-191800-
EAST CENTRAL ALABAMA

CITY           SKY/WX    TMP DP  RH WIND       PRES   REMARKS
ANNISTON       PTSUNNY   82  66  58 VRB6      30.06S
ALEXANDER CITY SUNNY     83  66  57 E8G16     30.06S
AUBURN         MOSUNNY   82  63  51 E12       30.09F
$$

ALZ051>064-191800-
SOUTHWEST ALABAMA

CITY           SKY/WX    TMP DP  RH WIND       PRES   REMARKS
MOBILE         PTSUNNY   82  71  69 VRB3      30.00F
BROOKLEY FIELD MOSUNNY   81  71  71 CALM      30.00F
EVERGREEN      SUNNY     88  64  44 SE8       30.00F
$$

ALZ049-050-065>069-191800-
SOUTHEAST ALABAMA

CITY           SKY/WX    TMP DP  RH WIND       PRES   REMARKS
DOTHAN         MOSUNNY   85  66  53 E9        30.05S
OZARK          MOSUNNY   86  66  52 E13       30.01F
TROY           SUNNY     88  64  44 VRB7      30.02F
EUFAULA        FAIR      89  67  47 E8        30.01F HX  92
$$



USA.gov is the U.S. government's official web portal to all federal, state and local government web resources and services.